Tracking 19242 objects as of 18-Sep-2018
HD Live streaming from Space Station
objects crossing your sky now

FENGYUN 1C DEB

Track FENGYUN 1C DEB now!
10-day predictions


NORAD ID: 37929
Int'l Code: 1999-025EPE
Perigee: 558.1 km
Apogee: 797.6 km
Inclination: 99.0 °
Period: 98.2 minutes
Semi major axis: 7048 km
RCS: 0.0114 m2 (small)
Launch date: May 10, 1999
Source: People's Republic of China (PRC)
Launch site: Taiyaun Space Center, China (TSC)

Note: This is SATELLITE DEBRIS
aabbcc
Your satellite tracking list
Your tracking list is empty




NASA's NSSDC Master Catalog

Two Line Element Set (TLE):
1 37929U 99025EPE 18260.16230154 +.00000859 +00000-0 +13361-3 0  9993
2 37929 098.9850 235.5211 0169851 153.6424 207.3545 14.66978110432137
Source of the keplerian elements: AFSPC